THOR ABLESTAR DEB, 334

Orbit data source: Space-Track

THOR ABLESTAR DEB, 334 is space debris in LEO originally from a launch on Thu, 29 Jun 1961 UTC launched from the Air Force Eastern Test Range (AFETR). Debris objects in space refer to the collection of defunct objects orbiting the Earth. Examples of debris include non-operational satellites, rocket bodies, and fragments generated from explosions, collisions, or faulty payload assembly.

Loading next visibility...
Identifier
334, 1961-015DL
Orbit
LEO
Country
Flag of USUS
Related business
Manufacturer
Unknown
Mission
Spacecraft
Bus & Motor
Unknown
Mass
Unknown
Launch date (UTC)
1961-06-29 (65 years ago)
Launch vehicle
Unknown
Launch site
Air Force Eastern Test Range (AFETR)
Object type
Payload
Rocket body
Debris
Shape & HBR
Unknown shape, 0.1 m
Radar Cross Section
Medium (>0.1 m² and <1 m²)

Expand to show TLE details & history
Last TLE update: 13 hours ago

TLE from 13 hours ago
0 THOR ABLESTAR DEB
1 00334U 61015DL  26174.68231365 -.00000003  00000-0  55635-4 0  9999
2 00334  66.9221 168.1978 0072436  98.3351 262.5950 13.91747946296961
Epoch: 2026-06-23T16:22Z
TLE epoch observation values (Epoch: 2026-06-23T16:22:31.899Z)
Latitude
-0.00005°
Longitude
10.71449°
Altitude
931.791 km
Speed
7.383 km/s
True Right ascension
11h 12m 47s
True Declination
0° 00' 00"
Sunlit
Object was in daylight at epoch
Visualization orbit readout
Latitude
Unknown
Longitude
Unknown
Altitude
Unknown
Speed
Unknown
Apparent Right ascension
Unknown
Apparent Declination
Unknown
Sunlit
N/A
Visualization observer readout
Local Sidereal Time
16:35:53
Azimuth
Unknown
Elevation
Unknown
Doppler factor
Unknown
Orbital elements
Apogee altitude
973.762 km
Perigee altitude
868.019 km
Semi-major axis
7,299.027 km
Eccentricity
0.00724
Inclination
66.9221°
RAAN
168.1978°
Arg. of periapsis
98.3351°
True anomaly
261.77286°
Mean anomaly
262.595°
Eccentric anomaly
262.18383°
Mean motion
3.48053 °/min
Orbital period
103.43 mins
BSTAR
0.000055635

Documentation

Showing up to 5 results
|